BEL8LT EBBR-LSGG

Flight info

Callsign BEL8LT
Flight time 0h 54m
Altitude 31000
Route ROUSY DCT GTQ DCT POGOL DCT LASAT DCT MOROK Z24 AKITO
Aircraft A319/M-SDE3FGHIRWY/LB1

Departure

Time 2026-05-06 18:02
Airport Brussels Airport (EBBR)

Arrival

Time 2026-05-06 18:56
Airport Geneva International Airport (LSGG)
Time Latitude Longitude Altitude Speed Heading
2026-05-06 17:28 50.90359 4.48428 119 ft 0 kts 155°
2026-05-06 17:36 50.90359 4.48427 121 ft 0 kts 155°
2026-05-06 17:50 50.90371 4.48418 119 ft 4 kts 155°
2026-05-06 17:50 50.90396 4.48400 117 ft 4 kts 154°
2026-05-06 17:50 50.90419 4.48382 117 ft 3 kts 148°
2026-05-06 17:51 50.90432 4.48367 117 ft 2 kts 120°
2026-05-06 17:51 50.90435 4.48351 118 ft 2 kts 67°
2026-05-06 17:51 50.90426 4.48317 118 ft 3 kts 68°
2026-05-06 17:51 50.90421 4.48300 117 ft 2 kts 65°
2026-05-06 17:52 50.90421 4.48299 117 ft 0 kts 65°
2026-05-06 17:54 50.90424 4.48311 117 ft 3 kts 64°
2026-05-06 17:54 50.90437 4.48353 117 ft 6 kts 65°
2026-05-06 17:54 50.90473 4.48477 119 ft 14 kts 65°
2026-05-06 17:54 50.90510 4.48605 121 ft 12 kts 65°
2026-05-06 17:55 50.90544 4.48726 120 ft 11 kts 65°
2026-05-06 17:55 50.90574 4.48829 118 ft 10 kts 65°
2026-05-06 17:55 50.90607 4.48942 121 ft 14 kts 65°
2026-05-06 17:55 50.90646 4.49084 119 ft 12 kts 75°
2026-05-06 17:56 50.90609 4.49162 121 ft 8 kts 155°
2026-05-06 17:56 50.90550 4.49205 123 ft 12 kts 155°
2026-05-06 17:56 50.90458 4.49271 122 ft 17 kts 155°
2026-05-06 17:56 50.90358 4.49344 123 ft 12 kts 152°
2026-05-06 17:57 50.90293 4.49409 125 ft 11 kts 179°
2026-05-06 17:57 50.90219 4.49379 124 ft 11 kts 194°
2026-05-06 17:57 50.90143 4.49348 127 ft 12 kts 194°
2026-05-06 17:57 50.90046 4.49318 131 ft 14 kts 167°
2026-05-06 17:58 50.89973 4.49285 133 ft 9 kts 204°
2026-05-06 17:58 50.89922 4.49302 136 ft 7 kts 147°
2026-05-06 17:58 50.89856 4.49349 139 ft 15 kts 187°
2026-05-06 17:58 50.89731 4.49299 147 ft 22 kts 197°
2026-05-06 17:59 50.89610 4.49232 154 ft 13 kts 218°
2026-05-06 17:59 50.89534 4.49175 159 ft 13 kts 193°
2026-05-06 17:59 50.89437 4.49136 163 ft 17 kts 194°
2026-05-06 17:59 50.89333 4.49054 166 ft 17 kts 241°
2026-05-06 18:00 50.89287 4.48864 165 ft 21 kts 250°
2026-05-06 18:00 50.89230 4.48614 164 ft 27 kts 250°
2026-05-06 18:00 50.89165 4.48331 164 ft 27 kts 250°
2026-05-06 18:00 50.89107 4.48084 164 ft 20 kts 251°
2026-05-06 18:01 50.89065 4.47925 164 ft 13 kts 229°
2026-05-06 18:01 50.88999 4.47906 171 ft 6 kts 162°
2026-05-06 18:01 50.88966 4.47926 175 ft 6 kts 155°
2026-05-06 18:01 50.88936 4.48018 178 ft 15 kts 103°
2026-05-06 18:02 50.88954 4.48257 179 ft 33 kts 69°
2026-05-06 18:02 50.89126 4.48994 177 ft 108 kts 70°
2026-05-06 18:02 50.89456 4.50399 381 ft 146 kts 66°
2026-05-06 18:02 50.89785 4.51890 1166 ft 143 kts 66°
2026-05-06 18:03 50.90209 4.53312 1884 ft 143 kts 61°
2026-05-06 18:03 50.90661 4.54720 2612 ft 143 kts 61°
2026-05-06 18:03 50.91123 4.56127 3309 ft 143 kts 60°
2026-05-06 18:03 50.91595 4.57593 3779 ft 161 kts 60°
2026-05-06 18:04 50.92142 4.59283 4152 ft 183 kts 61°
2026-05-06 18:04 50.92755 4.61194 4520 ft 206 kts 61°
2026-05-06 18:04 50.93442 4.63346 4907 ft 232 kts 61°
2026-05-06 18:04 50.94071 4.65854 5423 ft 257 kts 69°
2026-05-06 18:05 50.94598 4.68631 6253 ft 269 kts 77°
2026-05-06 18:05 50.94555 4.71632 7112 ft 281 kts 103°
2026-05-06 18:05 50.93631 4.74395 8000 ft 291 kts 132°
2026-05-06 18:05 50.92008 4.76326 8959 ft 295 kts 148°
2026-05-06 18:06 50.90254 4.78019 9942 ft 298 kts 149°
2026-05-06 18:06 50.88441 4.79743 10462 ft 316 kts 149°
2026-05-06 18:06 50.86488 4.81615 10779 ft 340 kts 148°
2026-05-06 18:06 50.84417 4.83612 11314 ft 353 kts 148°
2026-05-06 18:07 50.82314 4.85647 12073 ft 359 kts 149°
2026-05-06 18:07 50.80167 4.87726 12852 ft 364 kts 149°
2026-05-06 18:07 50.78132 4.90073 13619 ft 369 kts 141°
2026-05-06 18:07 50.76138 4.92657 14361 ft 372 kts 140°
2026-05-06 18:08 50.74141 4.95282 15089 ft 376 kts 140°
2026-05-06 18:08 50.72126 4.97939 15814 ft 379 kts 141°
2026-05-06 18:08 50.70098 5.00608 16544 ft 382 kts 141°
2026-05-06 18:08 50.68043 5.03305 17266 ft 385 kts 141°
2026-05-06 18:09 50.65975 5.06007 17987 ft 388 kts 141°
2026-05-06 18:09 50.63886 5.08733 18638 ft 392 kts 141°
2026-05-06 18:09 50.61778 5.11482 19247 ft 395 kts 141°
2026-05-06 18:09 50.59654 5.14239 19869 ft 398 kts 142°
2026-05-06 18:10 50.57381 5.16744 20474 ft 400 kts 147°
2026-05-06 18:10 50.55047 5.19158 21112 ft 403 kts 148°
2026-05-06 18:10 50.52676 5.21553 21688 ft 407 kts 148°
2026-05-06 18:10 50.50281 5.23950 22264 ft 410 kts 148°
2026-05-06 18:11 50.47871 5.26359 22860 ft 412 kts 148°
2026-05-06 18:11 50.45449 5.28782 23440 ft 415 kts 148°
2026-05-06 18:11 50.43010 5.31228 23910 ft 417 kts 148°
2026-05-06 18:11 50.40559 5.33693 24382 ft 419 kts 148°
2026-05-06 18:12 50.38098 5.36175 24862 ft 421 kts 148°
2026-05-06 18:12 50.35629 5.38664 25336 ft 423 kts 148°
2026-05-06 18:12 50.33148 5.41154 25803 ft 425 kts 148°
2026-05-06 18:12 50.30655 5.43648 26273 ft 427 kts 148°
2026-05-06 18:13 50.28150 5.46155 26742 ft 428 kts 148°
2026-05-06 18:13 50.25632 5.48673 27226 ft 430 kts 148°
2026-05-06 18:13 50.23122 5.51181 27677 ft 432 kts 148°
2026-05-06 18:13 50.20588 5.53714 28094 ft 434 kts 148°
2026-05-06 18:14 50.18039 5.56261 28528 ft 436 kts 148°
2026-05-06 18:14 50.15475 5.58816 28915 ft 439 kts 148°
2026-05-06 18:14 50.12892 5.61384 29305 ft 441 kts 148°
2026-05-06 18:14 50.10301 5.63959 29697 ft 443 kts 148°
2026-05-06 18:15 50.07695 5.66543 30064 ft 445 kts 148°
2026-05-06 18:15 50.05076 5.69134 30373 ft 447 kts 148°
2026-05-06 18:15 50.02439 5.71738 30716 ft 448 kts 148°
2026-05-06 18:15 49.99809 5.74336 30859 ft 446 kts 148°
2026-05-06 18:16 49.94667 5.79435 30885 ft 434 kts 148°
2026-05-06 18:16 49.89586 5.84462 30873 ft 433 kts 148°
2026-05-06 18:17 49.84506 5.89452 30871 ft 433 kts 148°
2026-05-06 18:17 49.79427 5.94449 30870 ft 432 kts 149°
2026-05-06 18:18 49.74403 5.99392 30868 ft 431 kts 149°
2026-05-06 18:18 49.69339 6.04341 30868 ft 430 kts 149°
2026-05-06 18:19 49.64279 6.09263 30858 ft 430 kts 149°
2026-05-06 18:19 49.59218 6.14175 30853 ft 430 kts 149°
2026-05-06 18:20 49.54157 6.19081 30853 ft 429 kts 149°
2026-05-06 18:20 49.49106 6.23966 30856 ft 429 kts 149°
2026-05-06 18:21 49.44046 6.28801 30851 ft 428 kts 149°
2026-05-06 18:21 49.38988 6.33617 30851 ft 427 kts 149°
2026-05-06 18:22 49.33940 6.38409 30854 ft 427 kts 149°
2026-05-06 18:22 49.28889 6.43199 30845 ft 427 kts 148°
2026-05-06 18:23 49.23875 6.47940 30845 ft 427 kts 149°
2026-05-06 18:23 49.18822 6.52700 30846 ft 426 kts 149°
2026-05-06 18:24 49.13765 6.57452 30847 ft 427 kts 149°
2026-05-06 18:24 49.08707 6.62205 30843 ft 427 kts 148°
2026-05-06 18:25 49.03607 6.66983 30841 ft 428 kts 148°
2026-05-06 18:25 48.98169 6.70593 30843 ft 428 kts 166°
2026-05-06 18:26 48.92281 6.71385 30850 ft 430 kts 181°
2026-05-06 18:26 48.86303 6.71139 30865 ft 430 kts 181°
2026-05-06 18:27 48.80308 6.70904 30870 ft 431 kts 181°
2026-05-06 18:27 48.74313 6.70669 30864 ft 430 kts 180°
2026-05-06 18:28 48.68328 6.70430 30863 ft 430 kts 181°
2026-05-06 18:28 48.62353 6.70202 30866 ft 430 kts 180°
2026-05-06 18:29 48.56376 6.69982 30864 ft 430 kts 180°
2026-05-06 18:29 48.50397 6.69741 30870 ft 430 kts 181°
2026-05-06 18:30 48.44407 6.69506 30883 ft 431 kts 180°
2026-05-06 18:30 48.38410 6.69277 30887 ft 431 kts 180°
2026-05-06 18:31 48.32434 6.69045 30878 ft 429 kts 180°
2026-05-06 18:31 48.26461 6.68815 30880 ft 429 kts 180°
2026-05-06 18:32 48.21501 6.68629 30887 ft 429 kts 180°
2026-05-06 18:32 48.14543 6.68366 30889 ft 430 kts 180°
2026-05-06 18:33 48.09533 6.68175 30894 ft 430 kts 180°
2026-05-06 18:33 48.03551 6.67953 30888 ft 430 kts 180°
2026-05-06 18:34 47.97559 6.67726 30900 ft 431 kts 180°
2026-05-06 18:34 47.91570 6.67491 30898 ft 431 kts 180°
2026-05-06 18:35 47.85568 6.67267 30828 ft 433 kts 180°
2026-05-06 18:35 47.82556 6.67153 30451 ft 433 kts 179°
2026-05-06 18:35 47.79542 6.66858 30095 ft 435 kts 184°
2026-05-06 18:36 47.76523 6.66409 29684 ft 437 kts 185°
2026-05-06 18:36 47.73497 6.65896 29250 ft 439 kts 185°
2026-05-06 18:36 47.70461 6.65348 28822 ft 440 kts 185°
2026-05-06 18:36 47.67459 6.64800 28408 ft 441 kts 185°
2026-05-06 18:37 47.64412 6.64253 27995 ft 441 kts 185°
2026-05-06 18:37 47.61372 6.63722 27586 ft 439 kts 186°
2026-05-06 18:37 47.58350 6.63206 27077 ft 434 kts 186°
2026-05-06 18:37 47.55371 6.62705 26404 ft 429 kts 186°
2026-05-06 18:38 47.52413 6.62211 25734 ft 425 kts 186°
2026-05-06 18:38 47.49486 6.61724 25082 ft 422 kts 186°
2026-05-06 18:38 47.46580 6.61241 24435 ft 418 kts 186°
2026-05-06 18:38 47.43701 6.60762 23801 ft 415 kts 186°
2026-05-06 18:39 47.40843 6.60286 23144 ft 412 kts 186°
2026-05-06 18:39 47.38000 6.59810 22476 ft 411 kts 187°
2026-05-06 18:39 47.35169 6.59335 21859 ft 408 kts 187°
2026-05-06 18:40 47.29575 6.58394 20755 ft 401 kts 187°
2026-05-06 18:40 47.26812 6.57931 20243 ft 398 kts 187°
2026-05-06 18:40 47.24071 6.57475 19781 ft 394 kts 187°
2026-05-06 18:40 47.21356 6.57022 19326 ft 391 kts 187°
2026-05-06 18:41 47.18670 6.56574 18844 ft 387 kts 187°
2026-05-06 18:41 47.16003 6.56134 18373 ft 384 kts 188°
2026-05-06 18:41 47.13360 6.55698 17856 ft 380 kts 188°
2026-05-06 18:41 47.10743 6.55267 17331 ft 376 kts 188°
2026-05-06 18:42 47.08155 6.54838 16829 ft 373 kts 188°
2026-05-06 18:42 47.05595 6.54413 16322 ft 369 kts 188°
2026-05-06 18:42 47.03053 6.53993 15818 ft 365 kts 188°
2026-05-06 18:42 47.00544 6.53581 15332 ft 361 kts 188°
2026-05-06 18:43 46.98060 6.53176 14806 ft 358 kts 188°
2026-05-06 18:43 46.95595 6.52775 14288 ft 355 kts 188°
2026-05-06 18:43 46.93179 6.52379 13794 ft 352 kts 188°
2026-05-06 18:43 46.90755 6.51978 13270 ft 349 kts 188°
2026-05-06 18:44 46.88359 6.51580 12722 ft 345 kts 189°
2026-05-06 18:44 46.85986 6.51188 12172 ft 341 kts 189°
2026-05-06 18:44 46.83636 6.50801 11617 ft 338 kts 189°
2026-05-06 18:44 46.81306 6.50416 11077 ft 335 kts 189°
2026-05-06 18:45 46.78995 6.50037 10523 ft 333 kts 189°
2026-05-06 18:45 46.76740 6.49670 10341 ft 318 kts 189°
2026-05-06 18:45 46.74593 6.49324 10219 ft 303 kts 189°
2026-05-06 18:45 46.72541 6.48992 10090 ft 291 kts 189°
2026-05-06 18:46 46.70568 6.48672 9927 ft 281 kts 189°
2026-05-06 18:46 46.68640 6.48357 9569 ft 278 kts 189°
2026-05-06 18:46 46.66728 6.48044 9200 ft 275 kts 189°
2026-05-06 18:46 46.64834 6.47735 8799 ft 273 kts 189°
2026-05-06 18:47 46.62948 6.47426 8390 ft 272 kts 189°
2026-05-06 18:47 46.61074 6.47117 8013 ft 269 kts 189°
2026-05-06 18:47 46.59239 6.46819 7802 ft 260 kts 189°
2026-05-06 18:47 46.57486 6.46536 7676 ft 247 kts 189°
2026-05-06 18:48 46.55814 6.46266 7547 ft 237 kts 189°
2026-05-06 18:48 46.54213 6.46010 7411 ft 226 kts 189°
2026-05-06 18:48 46.52671 6.45762 7225 ft 219 kts 189°
2026-05-06 18:48 46.51186 6.45523 7105 ft 212 kts 189°
2026-05-06 18:49 46.49717 6.45283 7015 ft 211 kts 190°
2026-05-06 18:49 46.48270 6.45009 6995 ft 208 kts 195°
2026-05-06 18:49 46.46915 6.44308 6992 ft 207 kts 210°
2026-05-06 18:49 46.45738 6.43147 6724 ft 204 kts 224°
2026-05-06 18:50 46.44742 6.41689 6432 ft 203 kts 226°
2026-05-06 18:50 46.43758 6.40237 6166 ft 201 kts 226°
2026-05-06 18:50 46.42773 6.38793 5880 ft 201 kts 226°
2026-05-06 18:50 46.41790 6.37356 5614 ft 199 kts 226°
2026-05-06 18:51 46.40818 6.35935 5353 ft 198 kts 226°
2026-05-06 18:51 46.39847 6.34516 5049 ft 199 kts 226°
2026-05-06 18:51 46.38870 6.33086 4705 ft 200 kts 225°
2026-05-06 18:51 46.37891 6.31658 4394 ft 202 kts 225°
2026-05-06 18:52 46.36927 6.30239 4264 ft 194 kts 225°
2026-05-06 18:52 46.35999 6.28871 4126 ft 187 kts 225°
2026-05-06 18:52 46.35098 6.27551 3942 ft 183 kts 225°
2026-05-06 18:52 46.34240 6.26279 3906 ft 169 kts 226°
2026-05-06 18:53 46.33448 6.25083 3777 ft 161 kts 225°
2026-05-06 18:53 46.32687 6.23984 3588 ft 158 kts 224°
2026-05-06 18:53 46.31888 6.22844 3364 ft 158 kts 225°
2026-05-06 18:53 46.31142 6.21725 3166 ft 156 kts 226°
2026-05-06 18:54 46.30397 6.20601 2952 ft 155 kts 226°
2026-05-06 18:54 46.29651 6.19492 2670 ft 151 kts 226°
2026-05-06 18:54 46.28937 6.18439 2474 ft 142 kts 226°
2026-05-06 18:54 46.28271 6.17449 2310 ft 133 kts 226°
2026-05-06 18:55 46.27610 6.16495 2113 ft 137 kts 226°
2026-05-06 18:55 46.26948 6.15511 1935 ft 137 kts 226°
2026-05-06 18:55 46.26289 6.14536 1777 ft 135 kts 226°
2026-05-06 18:55 46.25614 6.13556 1599 ft 141 kts 226°
2026-05-06 18:56 46.24924 6.12538 1402 ft 141 kts 226°
2026-05-06 18:56 46.24297 6.11617 1374 ft 114 kts 225°
2026-05-06 18:56 46.23887 6.11016 1378 ft 51 kts 225°
2026-05-06 18:56 46.23736 6.10816 1382 ft 22 kts 213°
2026-05-06 18:57 46.23611 6.10735 1383 ft 16 kts 195°
2026-05-06 18:57 46.23503 6.10692 1384 ft 15 kts 195°
2026-05-06 18:57 46.23407 6.10645 1394 ft 15 kts 210°
2026-05-06 18:57 46.23330 6.10541 1396 ft 16 kts 226°
2026-05-06 18:58 46.23253 6.10428 1396 ft 17 kts 225°
2026-05-06 18:58 46.23189 6.10341 1395 ft 10 kts 204°
2026-05-06 18:58 46.23132 6.10398 1395 ft 11 kts 135°
2026-05-06 18:58 46.23079 6.10471 1397 ft 7 kts 137°
2026-05-06 18:59 46.23057 6.10532 1397 ft 7 kts 136°
2026-05-06 18:59 46.23036 6.10563 1393 ft 3 kts 135°
2026-05-06 18:59 46.23030 6.10572 1393 ft 0 kts 135°